When you browse on this site, cookies collect data to enhance your experience and personalize the content and advertising you see.
Visit our Privacy Policy to learn more. By continuing to use the site, you agree to this use of cookies and data.
  • In Latvia
  • List of Countries
  • For 7 days
  • Water Temperature
  • Satellite Maps
  • Weather Map
  • Weather Widgets
  • user-avatar
    Login

    Hourly Weather Toledo

    Today, 20 July, Saturday

    Time Temperature Precipitation Wind Pressure Humidity
    00:00 +28°C° 0 mm 4 mps 743 mmHg 88%
    01:00 +28°C° 0.6 mm 4 mps 743 mmHg 89%
    02:00 +27°C° 0.6 mm 4 mps 743 mmHg 90%
    03:00 +27°C° 0.6 mm 5 mps 743 mmHg 91%
    04:00 +27°C° 1.1 mm 5 mps 743 mmHg 92%
    05:00 +27°C° 1.1 mm 5 mps 742 mmHg 92%
    06:00 +27°C° 0 mm 3 mps 743 mmHg 92%
    07:00 +28°C° 0 mm 3 mps 743 mmHg 89%
    08:00 +29°C° 0 mm 3 mps 742 mmHg 86%
    09:00 +30°C° 0 mm 3 mps 742 mmHg 83%
    10:00 +32°C° 0 mm 4 mps 742 mmHg 79%
    11:00 +33°C° 0 mm 5 mps 743 mmHg 75%
    12:00 +35°C° 0 mm 5 mps 743 mmHg 71%
    13:00 +35°C° 0.1 mm 5 mps 742 mmHg 71%
    14:00 +35°C° 0.1 mm 5 mps 742 mmHg 72%
    15:00 +35°C° 0.1 mm 6 mps 741 mmHg 72%
    16:00 +34°C° 0.7 mm 5 mps 742 mmHg 75%
    17:00 +33°C° 0.7 mm 5 mps 742 mmHg 79%
    18:00 +32°C° 0.7 mm 5 mps 742 mmHg 82%
    19:00 +30°C° 1 mm 5 mps 742 mmHg 84%
    20:00 +29°C° 1 mm 4 mps 742 mmHg 86%
    21:00 +28°C° 1 mm 4 mps 742 mmHg 89%
    22:00 +28°C° 1 mm 4 mps 742 mmHg 90%
    23:00 +28°C° 1 mm 4 mps 742 mmHg 91%

    Tomorrow, 21 July, Sunday

    Time Temperature Precipitation Wind Pressure Humidity
    00:00 +28°C° 1 mm 5 mps 742 mmHg 92%
    01:00 +27°C° 1.3 mm 4 mps 742 mmHg 93%
    02:00 +27°C° 1.3 mm 4 mps 742 mmHg 94%
    03:00 +27°C° 1.3 mm 4 mps 742 mmHg 95%
    04:00 +27°C° 0 mm 3 mps 742 mmHg 95%
    05:00 +27°C° 0 mm 2 mps 743 mmHg 94%
    06:00 +27°C° 0 mm 1 mps 743 mmHg 94%
    07:00 +27°C° 0.3 mm 2 mps 743 mmHg 92%
    08:00 +27°C° 0.3 mm 2 mps 743 mmHg 90%
    09:00 +27°C° 0.3 mm 3 mps 744 mmHg 88%
    10:00 +27°C° 0.8 mm 3 mps 743 mmHg 87%
    11:00 +27°C° 0.8 mm 4 mps 743 mmHg 85%
    12:00 +27°C° 0.8 mm 4 mps 743 mmHg 83%
    13:00 +27°C° 2.1 mm 3 mps 743 mmHg 85%
    14:00 +26°C° 2.1 mm 3 mps 743 mmHg 86%
    15:00 +26°C° 2.1 mm 2 mps 743 mmHg 87%
    16:00 +25°C° 0.7 mm 3 mps 743 mmHg 88%
    17:00 +25°C° 0.7 mm 3 mps 743 mmHg 89%
    18:00 +23°C° 0.7 mm 4 mps 743 mmHg 91%
    19:00 +24°C° 0.1 mm 3 mps 743 mmHg 90%
    20:00 +24°C° 0.1 mm 3 mps 743 mmHg 89%
    21:00 +22°C° 0.1 mm 3 mps 743 mmHg 89%
    22:00 +22°C° 1.2 mm 3 mps 743 mmHg 88%
    23:00 +22°C° 1.2 mm 4 mps 743 mmHg 87%

    Day after tomorrow, 22 July, Monday

    Time Temperature Precipitation Wind Pressure Humidity
    00:00 +21°C° 1.2 mm 4 mps 743 mmHg 86%
    01:00 +20°C° 1.1 mm 5 mps 743 mmHg 88%
    02:00 +19°C° 1.1 mm 5 mps 742 mmHg 89%
    03:00 +17°C° 1.1 mm 6 mps 742 mmHg 91%
    04:00 +19°C° 0.1 mm 5 mps 743 mmHg 90%
    05:00 +19°C° 0.1 mm 5 mps 743 mmHg 89%
    06:00 +19°C° 0.1 mm 4 mps 743 mmHg 88%
    07:00 +20°C° 0 mm 4 mps 743 mmHg 87%
    08:00 +20°C° 0 mm 3 mps 744 mmHg 87%
    09:00 +20°C° 0 mm 3 mps 744 mmHg 86%
    10:00 +20°C° 0.2 mm 3 mps 744 mmHg 87%
    11:00 +20°C° 0.2 mm 3 mps 744 mmHg 88%
    12:00 +19°C° 0.2 mm 3 mps 744 mmHg 89%
    13:00 +20°C° 0.2 mm 3 mps 744 mmHg 84%
    14:00 +21°C° 0.2 mm 3 mps 744 mmHg 78%
    15:00 +21°C° 0.2 mm 3 mps 744 mmHg 73%
    16:00 +21°C° 0 mm 3 mps 744 mmHg 75%
    17:00 +21°C° 0 mm 3 mps 744 mmHg 76%
    18:00 +20°C° 0 mm 4 mps 744 mmHg 78%
    19:00 +20°C° 0 mm 3 mps 744 mmHg 76%
    20:00 +19°C° 0 mm 3 mps 744 mmHg 74%
    21:00 +18°C° 0 mm 3 mps 745 mmHg 72%
    22:00 +18°C° 0 mm 3 mps 745 mmHg 73%
    23:00 +17°C° 0 mm 3 mps 745 mmHg 73%

    23 July, Tuesday

    Time Temperature Precipitation Wind Pressure Humidity
    00:00 +17°C° 0 mm 3 mps 745 mmHg 74%
    01:00 +16°C° 0 mm 3 mps 745 mmHg 72%
    02:00 +15°C° 0 mm 4 mps 745 mmHg 70%
    03:00 +14°C° 0 mm 4 mps 745 mmHg 68%
    04:00 +14°C° 0 mm 4 mps 745 mmHg 71%
    05:00 +14°C° 0 mm 4 mps 745 mmHg 74%
    06:00 +14°C° 0 mm 4 mps 746 mmHg 76%
    07:00 +15°C° 0 mm 4 mps 746 mmHg 73%
    08:00 +18°C° 0 mm 4 mps 746 mmHg 70%
    09:00 +20°C° 0 mm 4 mps 746 mmHg 67%
    10:00 +21°C° 0 mm 4 mps 746 mmHg 64%
    11:00 +22°C° 0 mm 3 mps 747 mmHg 62%
    12:00 +25°C° 0 mm 3 mps 747 mmHg 59%
    13:00 +25°C° 0 mm 3 mps 746 mmHg 58%
    14:00 +25°C° 0 mm 3 mps 746 mmHg 58%
    15:00 +25°C° 0 mm 3 mps 746 mmHg 57%
    16:00 +24°C° 0.2 mm 3 mps 746 mmHg 63%
    17:00 +22°C° 0.2 mm 3 mps 746 mmHg 70%
    18:00 +21°C° 0.2 mm 3 mps 746 mmHg 76%
    19:00 +20°C° 0.2 mm 3 mps 746 mmHg 78%
    20:00 +19°C° 0.2 mm 2 mps 746 mmHg 80%
    21:00 +17°C° 0.2 mm 2 mps 747 mmHg 81%
    22:00 +17°C° 0 mm 2 mps 747 mmHg 83%
    23:00 +16°C° 0 mm 2 mps 747 mmHg 84%

    24 July, Wednesday

    Time Temperature Precipitation Wind Pressure Humidity
    00:00 +16°C° 0 mm 2 mps 747 mmHg 86%
    01:00 +16°C° 0 mm 2 mps 747 mmHg 87%
    02:00 +15°C° 0 mm 2 mps 747 mmHg 87%
    03:00 +15°C° 0 mm 2 mps 747 mmHg 88%
    04:00 +16°C° 0 mm 2 mps 747 mmHg 87%
    05:00 +16°C° 0 mm 2 mps 747 mmHg 86%
    06:00 +17°C° 0 mm 2 mps 748 mmHg 85%
    07:00 +18°C° 0 mm 2 mps 748 mmHg 79%
    08:00 +20°C° 0 mm 2 mps 748 mmHg 73%
    09:00 +23°C° 0 mm 2 mps 749 mmHg 67%
    10:00 +24°C° 0 mm 2 mps 748 mmHg 64%
    11:00 +25°C° 0 mm 2 mps 748 mmHg 61%
    12:00 +26°C° 0 mm 2 mps 748 mmHg 58%
    13:00 +26°C° 0 mm 2 mps 748 mmHg 57%
    14:00 +26°C° 0 mm 2 mps 748 mmHg 56%
    15:00 +27°C° 0 mm 2 mps 747 mmHg 56%
    16:00 +26°C° 0 mm 2 mps 747 mmHg 60%
    17:00 +25°C° 0 mm 2 mps 747 mmHg 64%
    18:00 +24°C° 0 mm 1 mps 747 mmHg 68%
    19:00 +23°C° 0 mm 1 mps 748 mmHg 71%
    20:00 +21°C° 0 mm 1 mps 748 mmHg 73%
    21:00 +20°C° 0 mm 1 mps 748 mmHg 76%
    22:00 +20°C° 0 mm 1 mps 748 mmHg 77%
    23:00 +19°C° 0 mm 1 mps 748 mmHg 79%

    25 July, Thursday

    Time Temperature Precipitation Wind Pressure Humidity
    00:00 +19°C° 0 mm 1 mps 748 mmHg 80%
    01:00 +18°C° 0 mm 1 mps 749 mmHg 80%
    02:00 +18°C° 0 mm 1 mps 749 mmHg 80%
    03:00 +18°C° 0 mm 1 mps 749 mmHg 80%
    04:00 +19°C° 0 mm 1 mps 749 mmHg 80%
    05:00 +19°C° 0 mm 1 mps 749 mmHg 79%
    06:00 +20°C° 0 mm 1 mps 750 mmHg 79%
    07:00 +22°C° 0 mm 1 mps 750 mmHg 74%
    08:00 +23°C° 0 mm 1 mps 750 mmHg 70%
    09:00 +25°C° 0 mm 1 mps 750 mmHg 65%
    10:00 +26°C° 0 mm 1 mps 750 mmHg 63%
    11:00 +27°C° 0 mm 1 mps 750 mmHg 60%
    12:00 +28°C° 0 mm 1 mps 750 mmHg 58%
    13:00 +28°C° 0.1 mm 1 mps 750 mmHg 59%
    14:00 +28°C° 0.1 mm 1 mps 749 mmHg 60%
    15:00 +28°C° 0.1 mm 2 mps 749 mmHg 61%
    16:00 +27°C° 0.1 mm 1 mps 749 mmHg 65%
    17:00 +26°C° 0.1 mm 1 mps 749 mmHg 69%
    18:00 +25°C° 0.1 mm 1 mps 749 mmHg 73%
    19:00 +24°C° 0 mm 1 mps 749 mmHg 75%
    20:00 +23°C° 0 mm 1 mps 750 mmHg 76%
    21:00 +22°C° 0 mm 1 mps 750 mmHg 78%
    22:00 +21°C° 0 mm 1 mps 750 mmHg 80%
    23:00 +21°C° 0 mm 1 mps 750 mmHg 81%
    Show more